Regional Weather Roundup
Issued by NWS Austin/San Antonio, TX

Home | Current Version | Previous Version | Text Only | Print | Product List | Glossary On
Versions: 1 2 3 4 5 6 7 8 9 10 11 12 13 14 15 16 17 18 19 20 21 22 23 24 25 26 27 28 29 30 31 32 33 34 35 36 37 38 39 40 41 42 43 44 45 46 47 48 49 50
000
ASUS44 KEWX 181510
RWREWX
SOUTH TEXAS REGIONAL WEATHER ROUNDUP
NATIONAL WEATHER SERVICE AUSTIN/SAN ANTONIO TX
900 AM CST SUN FEB 18 2018

NOTE: "FAIR" INDICATED FEW OR NO CLOUDS BELOW 12,000 FEET WITH NO
SIGNIFICANT WEATHER AND/OR OBSTRUCTIONS TO VISIBILITY.

* - THESE STATIONS ARE NOT NWS OR FAA STATIONS...AND ARE NOT SUBJECT
    TO NWS AND FAA QUALITY CONTROL.

TXZ171-172-183>190-181600-
TEXAS HILL COUNTRY AND EDWARDS PLATEAU

CITY           SKY/WX    TMP DP  RH WIND       PRES   REMARKS
JUNCTION       CLOUDY    53  49  86 E3        30.12R FOG
*LLANO         CLOUDY    54  48  82 CALM      30.16R
BURNET         CLOUDY    51  50  96 SE3       30.14R FOG
*HORSESHOE BAY CLOUDY    51  51 100 CALM      30.13S FOG
*KERRVILLE     FOG       52  49  91 SE5       30.11R VSB 3/4
*FREDERICKSBRG FOG       50  49  96 CALM      30.12R VSB 3/4
*ROCKSPRINGS   FOG       59  59 100 SE8       30.14R VSB 1/4
*BOERNE STAGE  CLOUDY    50  50 100 CALM      30.14R VSB 1/2
*CASTROVILLE   FOG       55  55 100 E7        30.12S VSB 3/4
HONDO          FOG       58  55  90 E8        30.11R VSB 1
*UVALDE        CLOUDY    56  55  98 NE7       30.10R FOG
DEL RIO        CLOUDY    59  57  93 SE8       30.07R
LAUGHLIN AFB   CLOUDY    59  57  94 SE7       30.07S FOG
CARRIZO SPRGS  CLOUDY    59  59 100 NE3       30.07R FOG
*EAGLE PASS    FOG       59  57  94 CALM      30.08S VSB 1/2
*FAITH RANCH   CLOUDY    64  63  94 NE8       30.06R FOG
$$

TXZ173-191>194-202-209-217>225-228-181600-
CENTRAL AND SOUTH CENTRAL TEXAS

CITY           SKY/WX    TMP DP  RH WIND       PRES   REMARKS
GEORGETOWN     CLOUDY    51  50  96 NE3       30.15R FOG
AUSTIN/BERGSTM DRZL/FOG  52  52 100 NE3       30.13R VSB 1/2
AUSTIN/MABRY   CLOUDY    52  51  97 CALM      30.14R FOG
*AUSTIN/EXEC   FOG       52  52 100 CALM      30.14R VSB 1/4
*LAGO VISTA    DRZL/FOG  52  52 100 E3        30.13R VSB 1/4
SAN MARCOS     FOG       53  52  96 N6        30.14R VSB 1/2
NEW BRAUNFELS  FOG       53  52  96 NE6       30.12R VSB 1/2
RANDOLPH AFB   FOG       54  53  97 NE5       30.12R VSB 1/2
PT SAN ANTONIO FOG       55  55  99 NE7       30.09S VSB 1
SAN ANTONIO    DRZL/FOG  54  53  97 NE3       30.12R VSB 1/4
STINSON FIELD  CLOUDY    56  55  97 NE6       30.10R FOG
*LA GRANGE     FOG       57  57 100 CALM      30.11R VSB 1/2
*GIDDINGS      FOG       50  50  99 CALM      30.13R VSB 3/4
*GONZALES      FOG       56  56 100 E5        30.12R VSB 1/4
$$

TXZ163>164-176>182-195>201-210>213-226-227-235-181600-
SOUTHEAST TEXAS

CITY           SKY/WX    TMP DP  RH WIND       PRES   REMARKS
COLLEGE STN    FOG       55  55 100 E5        30.13R VSB 1/4
*BRYAN         FOG       54  54 100 E3        30.15R VSB 1/4
*CALDWELL      FOG       54  53  99 E3        30.13S VSB 3/4
*CROCKETT      FOG       54  54 100 CALM      30.17S VSB 3/4
*BRENHAM       FOG       57  57 100 CALM      30.14R VSB 1/4
HUNTSVILLE     FOG       57  57 100 CALM      30.13R VSB 1/4
CONROE         FOG       58  58 100 SE5       30.15R VSB 1/8
HOUSTON BUSH   CLOUDY    62  60  93 E8        30.14R FOG
HOUSTON HOBBY  FOG       62  62 100 E6        30.14R VSB 1
*HOUSTON SW AP FOG       63  62  98 E5        30.14S VSB 3/4
PEARLAND       FOG       63  63 100 E5        30.15R VSB 1
HOUSTON HOOKS  CLOUDY    60  59  96 E3        30.14R FOG
ELLINGTON FLD  NOT AVBL
SUGAR LAND     CLOUDY    65  62  90 E5        30.13R FOG
*HOUSTON EXEC  FOG       61  61 100 E3        30.15R VSB 1/2
*CLEVELAND MUN FOG       60  59  97 SE3       30.16R VSB 3/4
*WHARTON       FOG       62  61  95 NE3       30.13R VSB 1/4
*COLUMBUS      FOG       58  56  94 W3        30.14R VSB 3/4
*EAGLE LAKE    FOG       60  60 100 CALM      30.13R VSB 1/2
$$

TXZ214>216-236>238-181600-
THE UPPER TEXAS COAST

CITY           SKY/WX    TMP DP  RH WIND       PRES   REMARKS
*ORANGE        FOG       62  62 100 E7        30.19R VSB 3/4
PORT ARTHUR    FOG       64  62  93 E8        30.16R VSB 1
GALVESTON      FOG       66  66 100 E8        30.14R VSB<1/4
ANGLETON       FOG       67  65  93 E5        30.13R VSB 1/4
*BAY CITY      FOG       67  67 100 E5        30.12R VSB 1/4
PALACIOS       CLOUDY    68  68 100 E9        30.11R FOG
$$

TXZ229>234-239>247-181600-
TEXAS COASTAL BEND AND RIO GRANDE PLAINS

CITY           SKY/WX    TMP DP  RH WIND       PRES   REMARKS
VICTORIA       FOG       60  59  96 NE7       30.11R VSB 1/4
*BEEVILLE      CLOUDY    63  61  94 NE6       30.09R FOG
ROCKPORT       CLOUDY    68  67  96 E7        30.09R FOG
*PORT ARANSAS  NOT AVBL
*PORT LAVACA   CLOUDY    63  62  96 NE7       30.11R FOG
*INGLESIDE     CLOUDY    71  69  95 MISG      30.08R
CORPUS CHRISTI PTSUNNY   71  69  93 S13       30.08R
CORPUS NAS     FOG       70  70 100 S9        30.08R VSB 1/2
*ROBSTOWN      CLOUDY    72  67  87 S10       30.08R
ALICE          CLOUDY    70  67  90 SE9       30.07R
KINGSVILLE NAS CLOUDY    73  69  87 SE8       30.07R
COTULLA        CLOUDY    62  59  90 E9        30.07R FOG
LAREDO         CLOUDY    72  66  83 S9        30.06R
$$

TXZ248>255-181600-
DEEP SOUTH TEXAS

CITY           SKY/WX    TMP DP  RH WIND       PRES   REMARKS
BROWNSVILLE    CLOUDY    74  71  91 S15       30.08R
PORT ISABEL    CLOUDY    73  69  87 S13       30.07R FOG
*SOUTH PADRE   NOT AVBL
HARLINGEN      CLOUDY    73  70  90 S18       30.06R
*HEBBRONVILLE  CLOUDY    70  65  84 S13G20    30.07R
MCALLEN        PTSUNNY   76  70  82 S15G23    30.05R
*WESLACO       NOT AVBL
FALFURRIAS     PTSUNNY   73  68  82 SE9       30.06R
EDINBURG       CLOUDY    76  68  75 S14       30.06R
*ZAPATA        CLOUDY    72  65  78 SE12      30.04R
$$

TXZ213>215-236>238-242>244-246-247-251-254-255-181600-
CMAN STATIONS

STATION/POSITION TIME  TEMP    WIND        PRES    WAVE
                       AIR SEA DIR/SP/G            HT/PER
                 (UTC) (F)     (DEG/KT/KT) (MB)    (FT/S)
SABINE PASS      1442   65 66   80/  9/ 10 1022.7
SEA RIM ST PARK  1500   65     100/  7/ 10 1021.6
NORTH JETTY/GLS  1442      59   70/  8/  8 1020.3
EAGLE POINT      1442   63 63  110/  8/  9 1020.7
MORGANS POINT    1442   62 62   90/  5/  7 1020.5
PORT O`CONNOR    1436   61 63   90/  8/  9 1019.0
MALAQUITE BEACH  1436      60  130/ 12/ 12 1018.0
BAFFIN BAY       1436   66 68  130/ 10/ 14 1018.4
PORT ISABEL      1436   69 65  170/  6/ 10 1018.4
$$




USA.gov is the U.S. government's official web portal to all federal, state and local government web resources and services.